Wind_Speed
14 14 12 10 8 7 6 7 8 9 8 6 6 7 9 9 11 13 16 10 9 12 7 6 7 9 10 21 3 7 3 3 5 9 5 14 9 20 22 30 24 16 30 31 36
16 15 13 12 9 7 7 7 7 6 6 5 4 5 7 8 11 19 11 9 12 9 8 8 11 17 23 19 8 5 1 5 11 14 4 5 9 14 12 20 24 31 32 35 36
17 16 15 14 11 8 8 6 5 6 6 6 5 4 5 6 7 15 13 11 10 12 9 9 16 20 25 18 9 5 4 9 7 14 13 8 5 12 7 16 35 35 32 29 34
17 17 16 15 12 10 8 5 4 5 5 6 6 5 4 3 0 6 7 9 10 11 9 4 14 23 11 8 10 5 6 10 15 20 12 12 11 7 13 12 29 33 31 29 26
18 17 16 15 13 11 8 5 4 4 5 6 6 5 3 4 10 5 7 12 12 13 14 9 19 22 9 4 14 8 15 14 13 10 23 19 9 8 2 15 21 28 27 24 23
18 18 17 16 14 11 8 5 4 4 5 6 7 7 6 6 4 8 11 11 14 14 13 10 17 21 13 6 12 13 26 14 11 12 5 13 9 6 3 2 5 30 28 23 20
18 18 18 16 14 12 8 5 4 5 6 6 8 9 9 13 5 5 7 7 11 8 9 13 16 20 17 6 17 10 8 8 7 6 2 5 5 4 3 7 6 31 27 23 20
19 18 18 17 15 12 7 5 5 7 7 7 8 11 10 8 9 10 2 7 6 8 15 16 15 10 11 6 8 1 7 4 6 10 1 0 4 2 10 7 3 11 23 23 23
19 18 17 16 15 12 8 7 8 8 8 9 8 8 11 7 16 13 12 12 11 12 11 12 11 11 17 7 4 6 3 2 5 1 9 6 2 8 18 15 2 5 20 20 12
20 19 17 16 15 13 10 10 10 10 11 11 10 10 13 16 11 9 12 13 14 11 11 16 8 4 6 3 5 6 3 5 5 11 11 8 7 3 6 7 2 5 10 19 30
21 19 18 15 15 14 9 10 7 3 12 14 9 13 14 7 8 9 10 12 13 11 7 16 4 8 15 10 10 8 4 4 5 8 3 6 6 8 13 11 9 15 17 18 24
20 20 19 15 14 12 9 9 7 19 11 18 25 30 28 12 8 12 13 11 14 7 10 7 9 15 17 9 9 12 10 12 5 3 5 11 8 12 11 16 22 22 20 13 25
22 21 19 15 12 6 7 12 11 12 11 22 30 31 24 13 12 18 16 21 10 9 9 10 13 17 16 7 11 7 11 10 7 10 10 7 5 17 10 9 14 16 27 21 19
23 21 19 16 5 6 9 13 11 11 4 7 9 18 28 14 13 18 21 16 9 11 13 10 20 15 11 10 9 7 14 11 14 14 8 12 5 11 14 9 4 15 22 27 18
22 21 16 15 11 13 7 7 8 5 4 7 12 12 15 16 8 18 21 18 12 9 5 10 11 8 8 6 6 8 7 6 5 5 0 6 4 3 3 5 9 13 23 27 21
22 20 18 13 13 4 4 10 9 1 7 5 13 11 10 15 22 16 17 12 15 10 11 9 22 5 10 9 7 6 8 8 5 5 3 6 7 4 6 8 7 14 23 22 30
22 17 20 15 7 2 1 6 1 4 7 11 13 14 13 10 11 11 10 7 5 4 8 12 12 10 5 6 7 7 4 4 5 3 2 6 5 6 15 10 12 16 27 28 17
23 17 13 11 9 6 2 2 5 9 11 7 8 16 13 12 14 12 9 7 10 10 9 7 8 12 9 9 9 8 9 5 6 3 1 6 0 8 14 25 29 23 29 27 18
23 14 8 3 5 10 7 4 5 5 8 16 19 10 9 9 10 11 11 12 12 13 9 3 11 20 11 6 8 9 6 11 3 3 4 3 5 3 15 16 19 21 20 27 27
24 18 7 6 4 8 4 6 7 12 19 16 16 6 10 11 13 11 11 15 16 17 14 8 5 5 11 10 9 7 7 2 2 3 4 3 2 4 2 15 16 19 28 25 32
15 8 10 17 9 9 4 5 11 24 22 16 15 13 13 15 14 11 17 15 16 13 13 11 5 10 2 5 8 5 5 4 3 4 5 4 5 6 16 16 20 26 26 24 15
6 3 12 10 6 8 8 7 11 22 26 15 12 8 8 15 16 15 14 6 15 10 7 9 4 4 11 7 11 9 7 7 4 8 3 5 5 11 16 22 23 19 27 24 20
16 8 12 11 3 7 13 15 21 17 14 10 9 9 8 10 9 10 14 22 11 4 1 4 4 3 7 3 5 5 9 4 4 1 3 4 2 11 12 9 21 27 27 24 20
7 4 5 15 18 9 11 11 15 20 15 7 8 10 11 12 8 9 13 15 20 5 10 2 3 6 6 6 3 1 5 6 4 3 2 3 5 5 11 15 18 25 22 18 16
3 4 15 5 9 16 16 14 13 13 20 22 9 6 9 8 10 10 12 12 15 11 6 7 3 4 7 6 4 4 8 13 7 15 1 9 12 11 11 16 21 28 24 21 19
10 10 18 20 17 13 12 11 14 14 13 15 11 12 6 7 8 10 11 7 5 9 9 2 4 4 6 7 8 6 1 8 11 12 16 10 6 12 20 28 24 27 27 23 20
11 19 11 11 11 11 10 13 19 21 8 12 13 10 10 13 23 22 19 17 9 6 7 5 1 0 6 7 4 1 11 11 7 6 2 9 6 9 9 15 26 31 27 24 22
Wind_Direction
17 13 9 4 1 353 346 339 331 326 322 309 282 269 264 255 250 246 242 223 241 272 267 259 263 253 265 265 220 126 74 114 219 195 217 235 313 18 112 129 144 125 136 137 145
15 12 8 5 1 355 348 345 348 356 356 352 316 279 265 259 255 249 226 214 245 262 257 239 271 270 248 255 171 107 258 213 200 203 176 139 25 355 359 118 125 122 132 139 142
12 9 7 2 358 351 346 351 356 359 358 355 341 312 274 263 277 261 231 226 243 260 247 248 279 287 286 269 163 149 173 201 237 186 113 115 155 344 333 118 130 134 143 151 152
9 7 4 359 353 346 342 341 344 346 345 348 348 337 294 217 8 292 252 230 237 239 222 257 281 280 280 281 109 97 351 107 92 108 109 134 140 316 304 72 135 140 149 161 171
5 4 2 359 351 343 335 325 317 324 330 338 348 348 304 267 259 263 278 234 233 221 214 250 273 277 292 60 97 109 104 113 115 117 131 133 158 205 32 112 153 141 156 169 175
359 359 357 356 351 343 333 318 297 300 310 320 327 329 290 252 220 285 277 228 213 214 213 251 269 285 307 16 55 95 79 116 128 124 146 165 162 167 191 201 167 150 164 179 182
352 351 351 351 349 342 329 313 286 283 290 300 310 316 284 246 237 312 282 206 202 204 239 251 276 294 319 351 73 45 82 69 31 136 125 147 79 330 277 8 238 164 168 175 167
345 344 344 344 343 337 320 299 285 281 276 282 295 309 269 308 216 260 274 237 218 217 249 274 301 299 288 288 51 183 56 44 42 310 161 204 134 295 129 310 149 182 164 159 172
338 337 337 336 336 329 304 281 280 280 268 268 283 301 271 227 217 230 224 223 227 237 249 272 307 295 283 268 76 3 198 254 106 263 282 215 189 193 197 207 288 152 162 187 166
330 332 330 329 329 325 298 275 277 276 264 268 249 295 243 237 226 202 212 219 223 228 251 249 263 235 263 249 216 184 197 212 156 205 231 185 244 187 209 260 322 182 205 183 170
329 326 326 323 321 320 293 280 302 205 230 224 227 222 280 179 143 181 205 205 220 219 233 246 216 244 252 245 145 158 115 132 279 225 182 211 193 197 224 214 237 245 226 183 163
328 324 323 320 312 309 288 251 273 324 297 271 263 253 269 182 171 209 188 196 226 208 226 271 228 246 264 199 147 155 157 194 245 256 187 197 98 299 190 234 240 220 229 199 187
329 325 322 320 307 300 307 270 315 327 288 283 247 234 245 183 217 189 182 217 180 218 226 218 246 235 252 264 145 193 187 196 181 208 219 125 82 57 282 273 287 231 229 218 211
329 324 324 323 289 259 280 347 329 307 296 262 187 232 228 195 227 213 185 201 232 209 225 223 248 253 253 251 179 231 220 210 281 146 205 205 144 188 222 248 212 259 232 226 188
324 321 318 317 293 276 311 2 323 305 296 165 155 176 193 179 226 209 184 201 252 261 207 250 254 260 286 274 284 251 308 223 237 292 33 196 122 227 282 217 219 215 228 231 229
321 318 308 303 282 310 302 341 316 277 248 184 147 157 163 201 241 162 168 194 241 262 283 241 274 269 224 262 228 270 295 290 206 230 308 272 149 215 206 211 203 186 205 221 205
321 314 297 281 254 336 265 282 209 235 308 145 168 160 185 189 235 168 177 177 211 244 260 272 240 259 209 246 271 203 302 312 320 346 224 7 42 251 203 211 187 209 214 218 221
326 316 291 280 227 201 349 302 243 253 241 293 177 174 185 200 210 214 169 199 211 236 275 264 274 221 220 200 198 208 188 174 225 157 190 356 281 299 214 187 189 225 203 214 198
331 327 281 80 212 167 246 222 219 235 282 350 337 202 193 195 209 212 185 196 213 199 206 260 283 277 182 185 189 262 200 216 186 23 89 260 269 15 143 178 179 206 219 234 213
335 332 273 168 131 151 229 250 261 281 319 324 311 316 331 204 202 222 207 209 218 215 198 236 288 207 192 179 224 191 230 288 285 145 198 223 318 241 135 183 192 204 207 224 202
338 327 114 157 177 199 225 243 266 268 270 289 299 314 311 317 317 245 226 228 212 226 186 219 172 287 353 193 192 269 280 276 167 171 152 169 244 224 125 262 197 198 177 148 153
19 278 181 174 183 217 228 243 250 274 284 285 297 236 295 304 307 314 324 228 246 220 202 189 162 233 230 255 192 204 233 208 149 286 246 154 266 200 173 215 169 157 152 158 159
337 272 218 187 243 242 263 274 255 254 267 286 314 312 310 273 296 307 311 314 313 55 352 202 212 250 315 294 301 209 244 245 231 180 244 108 238 196 177 92 111 115 120 119 126
327 297 255 201 238 262 287 282 293 306 310 233 271 311 312 309 293 285 298 300 310 241 180 99 224 176 201 211 169 332 339 340 21 315 170 121 130 13 108 111 110 122 126 132 140
283 332 10 315 338 330 318 318 321 323 323 323 299 215 271 290 308 306 313 311 303 308 209 139 242 291 288 137 166 229 275 277 343 304 255 213 166 184 166 147 144 141 149 150 151
340 2 336 302 309 320 305 290 281 283 280 290 292 315 289 248 255 278 302 313 301 348 332 290 247 265 281 285 210 195 285 310 308 313 350 190 206 178 181 148 145 155 156 159 158
347 342 333 297 305 304 293 300 312 315 332 317 347 340 329 20 347 327 322 317 316 325 316 322 19 359 250 268 282 357 189 204 229 298 190 291 190 133 148 154 158 159 164 165 160
Height
1516 1513 1511 1510 1508 1507 1506 1505 1504 1502 1500 1499 1497 1496 1496 1495 1495 1495 1494 1496 1498 1499 1499 1499 1499 1498 1497 1496 1501 1505 1520 1530 1527 1528 1524 1514 1509 1501 1501 1506 1512 1511 1519 1526 1532
1517 1514 1512 1510 1508 1507 1506 1504 1503 1501 1500 1498 1497 1496 1495 1494 1494 1491 1493 1494 1497 1498 1499 1498 1497 1498 1497 1493 1499 1504 1522 1519 1514 1513 1512 1516 1510 1512 1509 1504 1512 1518 1525 1529 1534
1518 1515 1512 1510 1508 1507 1506 1504 1503 1501 1500 1498 1497 1496 1495 1494 1494 1487 1490 1493 1496 1497 1498 1498 1496 1494 1491 1490 1493 1498 1509 1505 1503 1507 1507 1512 1515 1512 1515 1509 1512 1518 1525 1530 1534
1519 1516 1513 1510 1508 1507 1505 1504 1503 1502 1500 1499 1498 1496 1495 1495 1495 1488 1489 1491 1494 1496 1497 1497 1494 1492 1488 1488 1491 1500 1503 1502 1504 1507 1510 1512 1514 1517 1518 1516 1517 1520 1525 1530 1532
1520 1517 1514 1511 1508 1506 1505 1504 1503 1502 1500 1499 1498 1497 1496 1496 1490 1489 1489 1491 1493 1494 1496 1496 1494 1492 1491 1489 1490 1499 1498 1505 1505 1508 1510 1514 1516 1522 1522 1519 1523 1522 1528 1529 1530
1520 1517 1514 1511 1508 1506 1504 1503 1502 1502 1500 1499 1498 1497 1496 1496 1488 1489 1488 1487 1490 1493 1495 1496 1493 1493 1489 1489 1491 1502 1496 1506 1507 1511 1514 1515 1518 1521 1522 1519 1521 1522 1526 1528 1530
1519 1516 1513 1510 1507 1505 1504 1502 1502 1501 1500 1499 1497 1496 1494 1490 1488 1488 1486 1487 1490 1491 1494 1493 1494 1493 1490 1491 1494 1504 1500 1505 1512 1514 1514 1513 1522 1520 1519 1521 1520 1521 1523 1527 1528
1518 1515 1512 1509 1506 1504 1502 1501 1501 1500 1499 1498 1497 1495 1490 1486 1487 1486 1487 1488 1490 1491 1494 1493 1494 1491 1491 1492 1497 1502 1506 1525 1523 1518 1518 1517 1527 1519 1516 1521 1521 1523 1523 1525 1528
1516 1513 1511 1508 1505 1503 1501 1500 1499 1498 1497 1497 1497 1495 1489 1485 1485 1486 1487 1488 1490 1492 1493 1493 1493 1492 1490 1493 1512 1514 1526 1522 1526 1519 1518 1518 1522 1516 1517 1522 1520 1522 1522 1524 1529
1514 1511 1509 1506 1503 1501 1499 1498 1497 1497 1496 1495 1495 1498 1485 1480 1481 1483 1486 1488 1489 1491 1493 1493 1493 1493 1489 1497 1523 1519 1516 1509 1522 1515 1515 1514 1515 1514 1511 1511 1518 1523 1524 1525 1527
1511 1508 1506 1503 1501 1499 1498 1496 1497 1496 1493 1488 1485 1479 1478 1478 1480 1483 1485 1487 1488 1489 1493 1489 1499 1503 1486 1484 1486 1496 1506 1510 1508 1505 1513 1511 1514 1517 1516 1516 1520 1522 1525 1524 1526
1509 1506 1503 1501 1499 1496 1495 1494 1491 1494 1485 1481 1478 1478 1474 1476 1479 1481 1484 1487 1486 1491 1488 1493 1500 1481 1475 1479 1478 1489 1504 1507 1502 1501 1515 1512 1523 1523 1524 1525 1521 1521 1522 1524 1526
1506 1503 1500 1498 1496 1495 1494 1492 1492 1491 1487 1469 1467 1471 1470 1474 1475 1476 1481 1482 1483 1488 1487 1495 1482 1474 1472 1473 1487 1489 1493 1488 1488 1492 1517 1516 1530 1532 1524 1521 1521 1520 1518 1521 1524
1504 1500 1498 1495 1496 1493 1492 1491 1492 1492 1494 1465 1457 1463 1467 1470 1471 1471 1474 1479 1479 1483 1480 1483 1471 1470 1471 1473 1477 1493 1470 1474 1475 1494 1517 1498 1543 1531 1518 1517 1514 1514 1515 1516 1520
1501 1498 1497 1495 1493 1491 1492 1489 1490 1491 1521 1444 1452 1456 1461 1467 1463 1466 1470 1474 1477 1475 1474 1482 1471 1470 1472 1469 1466 1478 1466 1469 1467 1482 1483 1497 1518 1515 1519 1515 1506 1504 1505 1508 1514
1499 1496 1493 1493 1490 1491 1491 1491 1492 1502 1505 1450 1449 1455 1460 1463 1462 1462 1469 1472 1473 1472 1468 1469 1461 1462 1463 1461 1462 1464 1469 1471 1470 1482 1514 1492 1500 1525 1520 1504 1500 1495 1492 1497 1506
1494 1492 1489 1489 1488 1489 1489 1491 1502 1507 1450 1451 1452 1450 1455 1462 1462 1463 1466 1473 1482 1489 1488 1470 1463 1456 1455 1463 1460 1465 1483 1518 1521 1518 1514 1485 1495 1500 1489 1491 1487 1483 1482 1489 1502
1490 1487 1485 1484 1486 1488 1490 1492 1507 1468 1460 1442 1446 1447 1457 1454 1458 1456 1465 1474 1468 1471 1480 1488 1488 1458 1451 1459 1469 1472 1481 1515 1526 1526 1510 1484 1520 1507 1472 1482 1481 1476 1475 1485 1499
1485 1483 1480 1482 1483 1488 1492 1500 1485 1466 1450 1449 1444 1453 1453 1447 1452 1454 1458 1462 1457 1458 1481 1478 1472 1438 1443 1447 1455 1468 1483 1465 1487 1500 1513 1504 1496 1471 1476 1480 1483 1484 1484 1485 1494
1483 1479 1477 1479 1484 1487 1491 1490 1472 1459 1457 1455 1464 1447 1459 1450 1451 1452 1454 1444 1446 1443 1446 1455 1477 1444 1440 1443 1447 1455 1454 1484 1487 1521 1520 1508 1500 1498 1478 1480 1481 1488 1484 1483 1489
1484 1483 1478 1482 1485 1487 1491 1480 1468 1460 1459 1458 1454 1453 1451 1452 1449 1447 1442 1434 1432 1433 1435 1443 1459 1460 1442 1452 1459 1461 1466 1462 1470 1476 1506 1525 1506 1475 1477 1493 1479 1479 1479 1480 1486
1486 1484 1479 1481 1485 1481 1480 1472 1464 1458 1455 1453 1449 1447 1450 1448 1450 1447 1441 1427 1424 1424 1436 1435 1450 1472 1457 1437 1435 1442 1454 1457 1489 1486 1476 1485 1498 1460 1464 1475 1467 1472 1477 1482 1487
1488 1483 1478 1478 1483 1476 1468 1463 1459 1454 1451 1449 1449 1446 1444 1448 1458 1445 1437 1428 1425 1425 1432 1433 1453 1479 1468 1448 1437 1447 1445 1446 1452 1460 1472 1491 1488 1463 1465 1463 1467 1472 1478 1483 1488
1494 1483 1475 1474 1470 1471 1469 1463 1457 1448 1446 1445 1447 1447 1449 1450 1442 1447 1440 1429 1426 1424 1425 1428 1442 1457 1480 1461 1448 1457 1451 1451 1458 1478 1469 1477 1473 1467 1463 1467 1472 1476 1480 1485 1489
1495 1485 1487 1479 1475 1475 1470 1466 1460 1457 1449 1446 1447 1445 1450 1457 1451 1449 1438 1432 1425 1425 1422 1427 1448 1442 1441 1441 1443 1443 1444 1447 1463 1462 1472 1471 1465 1461 1457 1461 1466 1472 1480 1484 1488
1500 1499 1493 1488 1480 1476 1470 1465 1462 1456 1455 1451 1449 1442 1443 1451 1449 1449 1441 1439 1438 1430 1431 1422 1446 1439 1448 1437 1440 1446 1446 1445 1449 1451 1458 1449 1452 1441 1448 1453 1462 1469 1475 1481 1485
1503 1502 1499 1490 1483 1478 1472 1465 1459 1454 1450 1448 1447 1447 1446 1448 1448 1444 1440 1438 1436 1438 1438 1435 1439 1449 1461 1443 1443 1462 1449 1450 1450 1453 1463 1480 1442 1440 1449 1452 1457 1462 1470 1476 1482